Location: Novo Ouro Preto
(19.8840°S, 43.9844°W)
Time: 09:03:51
(UTC+00:00)

DMSP B5D2-2 - Pass Details

Date: 18 September 2020
Orbit: 790 x 805 km, 98.3° (Epoch: 22 October)

Event Time Altitude Azimuth Distance (km) Brightness Sun altitude
Rises 22:19:30 0° 6° (N) 3,295 7.2 -21.5°
Reaches altitude 10° 22:21:51 10° 3° (N) 2,369 6.4 -22.1°
Maximum altitude 22:27:03 66° 281° (WNW) 875 4.4 -23.3°
Drops below altitude 10° 22:32:17 10° 199° (SSW) 2,384 6.9 -24.5°
Sets 22:34:38 0° 196° (SSW) 3,317 7.6 -25.1°
